Location: Albany
(35.0170°S, 117.8920°E)
Time: 11:39:01
(UTC+08:00)

S-56A Canister/Altair - Pass Details

Date: 28 January 2021
Orbit: 631 x 2501 km, 38.9° (Epoch: 02 March)

Event Time Altitude Azimuth Distance (km) Brightness Sun altitude
Rises 11:29:56 0° 316° (NW) 4,840 11.7 69.6°
Reaches altitude 10° 11:32:49 10° 320° (NW) 4,079 11.4 70.0°
Maximum altitude 11:44:04 59° 36° (NE) 2,498 12.3 71.2°
Drops below altitude 10° 11:58:39 10° 109° (ESE) 5,178 11.9 72.4°
Sets 12:02:48 0° 112° (ESE) 6,186 12.1 72.6°
